Погода в Ко Чанге

Таиланд     12°02′44″N   102°20′20″E
темп.,
°C
ветер,
м/с
пор.,
м/с
влажн.,
%
обл.,
%
осадки,
мм/ч
давл.,
гПа
погр.,
м
19 апреля, пн
пн1901:00+29ююз337298 0.7 1010288
04:00+29ююз447285 1.3 1009652
07:00+29ююз4472100 2.1 1010660
10:00+29юз4573100 0.5 1011585
13:00+29юз4471100 2.2 1009872
16:00+29юз447176 1.6 1007891
19:00+29ююз66726 2.1 1008904
22:00+28ююз5677100 2.8 1010525
20 апреля, вт
вт2001:00+29ююз6672100 4.4 1009847
04:00+29ююз5673100 1.2 1008895
07:00+28юз3475100 9.6 1009382
10:00+28сз1172100 2.6 1011585
13:00+29з2373100 2.6 1009685
16:00+29юз3370100 0.1 1007775
19:00+29ююз2369100 0.1 1008731
22:00+29ю3370100 0.0 1010673
21 апреля, ср
ср2101:00+29ююз2371100 0.0 1008743
04:00+29ююз3372100 0.0 1007709
07:00+29ююз1270100 0.0 1010714
10:00+29ююз2271100 0.2 1011605
13:00+30юз2370100 1.6 1009691
16:00+30юз336991 0.0 1007826
19:00+30ю33715 0.0 1007647
22:00+30ююв33736 0.0 1009523
22 апреля, чт
чт2201:00+29ююз447079 0.4 1008700
04:00+30ююз446420 0.0 1007693
07:00+29юз237290 0.3 1009605
10:00+30зюз237169 0.0 1010753
13:00+30зюз4469100 0.0 1008825
16:00+30юз4467100 0.0 1006752
19:00+30ююз336879 0.0 1007570
22:00+30ю3469100 0.0 1009562
23 апреля, пт
пт2301:00+30ю456960 0.0 1007698
04:00+30ююв447376 0.2 1006741
07:00+30з767415 0.6 1008800
10:00+30зюз666934 0.0 1009825
13:00+30зюз556779 0.0 1008951
16:00+29ююз33665 0.0 1005704
19:00+30ююз446632 0.0 1006573
22:00+30ю5667100 0.0 1008573